| time (UTC) | temp F | wind direction | speed MPH | gust MPH | rain 1hr in | rain 24hr in | rain mn in | humidity % | barometer mb |
| 20260504225024 | 71 | 277 | 2.0 | 9.0 | 0.00 | 0.00 | 0.00 | 35 | 1009.5 |
| 20260504224556 | 71 | 220 | 2.0 | 10.0 | 0.00 | 0.00 | 0.00 | 35 | 1009.6 |
| 20260504224024 | 71 | 248 | 3.0 | 10.0 | 0.00 | 0.00 | 0.00 | 34 | 1009.6 |
| 20260504223524 | 71 | 265 | 2.0 | 9.0 | 0.00 | 0.00 | 0.00 | 34 | 1009.5 |
| 20260504223039 | 71 | 238 | 4.0 | 10.0 | 0.00 | 0.00 | 0.00 | 34 | 1009.6 |
| 20260504222525 | 71 | 277 | 3.0 | 10.0 | 0.00 | 0.00 | 0.00 | 34 | 1009.5 |
| 20260504222023 | 71 | 219 | 3.0 | 12.0 | 0.00 | 0.00 | 0.00 | 34 | 1009.5 |
| 20260504221544 | 71 | 271 | 3.0 | 12.0 | 0.00 | 0.00 | 0.00 | 34 | 1009.5 |
| 20260504221030 | 71 | 267 | 5.0 | 12.0 | 0.00 | 0.00 | 0.00 | 34 | 1009.5 |
| 20260504220527 | 71 | 262 | 2.0 | 8.0 | 0.00 | 0.00 | 0.00 | 34 | 1009.4 |
| 20260504220051 | 71 | 262 | 2.0 | 12.0 | 0.00 | 0.00 | 0.00 | 34 | 1009.5 |
| 20260504215531 | 71 | 219 | 4.0 | 12.0 | 0.00 | 0.00 | 0.00 | 33 | 1009.5 |
| 20260504215026 | 72 | 232 | 4.0 | 9.0 | 0.00 | 0.00 | 0.00 | 33 | 1009.4 |
| 20260504214543 | 72 | 263 | 2.0 | 12.0 | 0.00 | 0.00 | 0.00 | 32 | 1009.4 |
| 20260504214027 | 72 | 298 | 4.0 | 12.0 | 0.00 | 0.00 | 0.00 | 32 | 1009.5 |
| 20260504213527 | 72 | 269 | 3.0 | 11.0 | 0.00 | 0.00 | 0.00 | 33 | 1009.5 |
| 20260504213040 | 72 | 153 | 5.0 | 11.0 | 0.00 | 0.00 | 0.00 | 32 | 1009.5 |
| 20260504212528 | 72 | 270 | 4.0 | 10.0 | 0.00 | 0.00 | 0.00 | 32 | 1009.5 |
| 20260504212027 | 72 | 294 | 4.0 | 10.0 | 0.00 | 0.00 | 0.00 | 33 | 1009.4 |
| 20260504211546 | 72 | 147 | 4.0 | 15.0 | 0.00 | 0.00 | 0.00 | 32 | 1009.4 |
| 20260504211027 | 72 | 261 | 5.0 | 15.0 | 0.00 | 0.00 | 0.00 | 32 | 1009.4 |
| 20260504210820 | 72 | 321 | 4.0 | 11.0 | 0.00 | 0.00 | 0.00 | 32 | 1009.5 |
| 20260504210059 | 72 | 282 | 3.0 | 11.0 | 0.00 | 0.00 | 0.00 | 31 | 1009.4 |
| 20260504205528 | 72 | 196 | 3.0 | 7.0 | 0.00 | 0.00 | 0.00 | 31 | 1009.4 |
| 20260504205031 | 72 | 289 | 3.0 | 14.0 | 0.00 | 0.00 | 0.00 | 31 | 1009.4 |
| 20260504204547 | 72 | 283 | 4.0 | 14.0 | 0.00 | 0.00 | 0.00 | 31 | 1009.4 |
| 20260504204028 | 72 | 288 | 3.0 | 13.0 | 0.00 | 0.00 | 0.00 | 31 | 1009.3 |
| 20260504203527 | 72 | 250 | 5.0 | 14.0 | 0.00 | 0.00 | 0.00 | 31 | 1009.3 |
| 20260504203044 | 72 | 260 | 4.0 | 14.0 | 0.00 | 0.00 | 0.00 | 31 | 1009.3 |
| 20260504202527 | 72 | 275 | 4.0 | 14.0 | 0.00 | 0.00 | 0.00 | 31 | 1009.4 |
| 20260504202026 | 72 | 205 | 5.0 | 14.0 | 0.00 | 0.00 | 0.00 | 31 | 1009.5 |
| 20260504201546 | 72 | 259 | 3.0 | 14.0 | 0.00 | 0.00 | 0.00 | 31 | 1009.4 |
| 20260504201024 | 72 | 244 | 3.0 | 14.0 | 0.00 | 0.00 | 0.00 | 31 | 1009.5 |
| 20260504200530 | 72 | 295 | 3.0 | 13.0 | 0.00 | 0.00 | 0.00 | 29 | 1009.4 |
| 20260504200049 | 72 | 240 | 4.0 | 13.0 | 0.00 | 0.00 | 0.00 | 29 | 1009.6 |
| 20260504195525 | 72 | 251 | 3.0 | 13.0 | 0.00 | 0.00 | 0.00 | 30 | 1009.6 |
| 20260504195025 | 72 | 288 | 3.0 | 15.0 | 0.00 | 0.00 | 0.00 | 31 | 1009.6 |
| 20260504194544 | 72 | 269 | 4.0 | 15.0 | 0.00 | 0.00 | 0.00 | 31 | 1009.7 |
| 20260504194025 | 72 | 272 | 6.0 | 15.0 | 0.00 | 0.00 | 0.00 | 30 | 1010.0 |
| 20260504193528 | 72 | 283 | 2.0 | 13.0 | 0.00 | 0.00 | 0.00 | 30 | 1009.9 |
| 20260504193045 | 72 | 286 | 4.0 | 13.0 | 0.00 | 0.00 | 0.00 | 30 | 1010.0 |
| 20260504192526 | 71 | 294 | 3.0 | 11.0 | 0.00 | 0.00 | 0.00 | 30 | 1010.0 |
| 20260504192030 | 72 | 275 | 2.0 | 15.0 | 0.00 | 0.00 | 0.00 | 30 | 1010.1 |
| 20260504191552 | 71 | 298 | 3.0 | 15.0 | 0.00 | 0.00 | 0.00 | 31 | 1010.2 |
| 20260504191027 | 71 | 285 | 5.0 | 13.0 | 0.00 | 0.00 | 0.00 | 29 | 1010.2 |
| 20260504190527 | 71 | 287 | 6.0 | 13.0 | 0.00 | 0.00 | 0.00 | 30 | 1010.3 |
| 20260504190041 | 71 | 257 | 4.0 | 11.0 | 0.00 | 0.00 | 0.00 | 31 | 1010.2 |
| 20260504185524 | 71 | 299 | 4.0 | 9.0 | 0.00 | 0.00 | 0.00 | 30 | 1010.4 |
| 20260504185025 | 71 | 271 | 3.0 | 12.0 | 0.00 | 0.00 | 0.00 | 31 | 1010.4 |
| 20260504184544 | 71 | 303 | 3.0 | 12.0 | 0.00 | 0.00 | 0.00 | 31 | 1010.5 |
| 20260504184029 | 71 | 259 | 2.0 | 12.0 | 0.00 | 0.00 | 0.00 | 30 | 1010.6 |
| 20260504183526 | 71 | 201 | 4.0 | 15.0 | 0.00 | 0.00 | 0.00 | 31 | 1010.7 |
| 20260504183045 | 71 | 281 | 5.0 | 15.0 | 0.00 | 0.00 | 0.00 | 31 | 1010.6 |
| 20260504182525 | 71 | 247 | 3.0 | 16.0 | 0.00 | 0.00 | 0.00 | 30 | 1010.8 |
| 20260504182025 | 70 | 290 | 4.0 | 16.0 | 0.00 | 0.00 | 0.00 | 30 | 1011.0 |
| 20260504181543 | 70 | 249 | 5.0 | 14.0 | 0.00 | 0.00 | 0.00 | 31 | 1010.9 |
| 20260504181027 | 71 | 254 | 4.0 | 14.0 | 0.00 | 0.00 | 0.00 | 30 | 1011.0 |
| 20260504180527 | 70 | 219 | 4.0 | 13.0 | 0.00 | 0.00 | 0.00 | 32 | 1011.0 |
| 20260504180043 | 70 | 243 | 5.0 | 12.0 | 0.00 | 0.00 | 0.00 | 30 | 1011.2 |
| 20260504175526 | 70 | 270 | 3.0 | 9.0 | 0.00 | 0.00 | 0.00 | 33 | 1011.3 |
| 20260504175026 | 70 | 248 | 3.0 | 15.0 | 0.00 | 0.00 | 0.00 | 31 | 1011.4 |
| 20260504174550 | 70 | 310 | 4.0 | 15.0 | 0.00 | 0.00 | 0.00 | 31 | 1011.4 |
| 20260504174027 | 70 | 284 | 3.0 | 9.0 | 0.00 | 0.00 | 0.00 | 31 | 1011.4 |
| 20260504173528 | 69 | 302 | 2.0 | 13.0 | 0.00 | 0.00 | 0.00 | 32 | 1011.5 |
| 20260504173045 | 69 | 270 | 2.0 | 13.0 | 0.00 | 0.00 | 0.00 | 32 | 1011.6 |
| 20260504172525 | 70 | 284 | 2.0 | 9.0 | 0.00 | 0.00 | 0.00 | 32 | 1011.6 |
| 20260504172025 | 69 | 204 | 4.0 | 11.0 | 0.00 | 0.00 | 0.00 | 31 | 1011.7 |
| 20260504171545 | 69 | 279 | 4.0 | 12.0 | 0.00 | 0.00 | 0.00 | 30 | 1011.8 |
| 20260504171027 | 69 | 221 | 3.0 | 16.0 | 0.00 | 0.00 | 0.00 | 32 | 1012.0 |
| 20260504170526 | 68 | 269 | 4.0 | 16.0 | 0.00 | 0.00 | 0.00 | 32 | 1012.0 |
| 20260504151027 | 65 | 221 | 4.0 | 11.0 | 0.00 | 0.00 | 0.00 | 41 | 1013.2 |
| 20260504150526 | 65 | 282 | 3.0 | 9.0 | 0.00 | 0.00 | 0.00 | 42 | 1013.2 |
| 20260504141028 | 63 | 223 | 3.0 | 11.0 | 0.00 | 0.00 | 0.00 | 52 | 1013.3 |
| 20260504140525 | 62 | 257 | 3.0 | 12.0 | 0.00 | 0.00 | 0.00 | 51 | 1013.5 |
| 20260504130525 | 59 | 286 | 5.0 | 16.0 | 0.00 | 0.00 | 0.00 | 56 | 1013.8 |
| 20260504110526 | 48 | 255 | 0.0 | 1.0 | 0.00 | 0.00 | 0.00 | 79 | 1014.5 |
| 20260504100530 | 44 | 0 | 0.0 | 1.0 | 0.00 | 0.00 | 0.00 | 78 | 1014.5 |
| 20260504081547 | 49 | 219 | 1.0 | 6.0 | 0.00 | 0.00 | 0.00 | 65 | 1014.3 |
| 20260504081024 | 49 | 252 | 0.0 | 4.0 | 0.00 | 0.00 | 0.00 | 65 | 1014.3 |
| 20260504080526 | 49 | 217 | 1.0 | 5.0 | 0.00 | 0.00 | 0.00 | 65 | 1014.4 |
| 20260504050525 | 47 | 219 | 0.0 | 1.0 | 0.00 | 0.00 | 0.00 | 61 | 1014.2 |
| 20260504045525 | 47 | 0 | 0.0 | 1.0 | 0.00 | 0.00 | 0.00 | 61 | 1014.3 |
| 20260504045032 | 47 | 0 | 0.0 | 2.0 | 0.00 | 0.00 | 0.00 | 60 | 1014.3 |
| 20260504044543 | 47 | 0 | 0.0 | 2.0 | 0.00 | 0.00 | 0.00 | 60 | 1014.2 |
| 20260504044030 | 47 | 238 | 0.0 | 1.0 | 0.00 | 0.00 | 0.00 | 59 | 1014.1 |
| 20260504043527 | 47 | 0 | 0.0 | 2.0 | 0.00 | 0.00 | 0.00 | 59 | 1014.1 |
| 20260504043046 | 47 | 214 | 0.0 | 2.0 | 0.00 | 0.00 | 0.00 | 59 | 1014.0 |
| 20260504042526 | 47 | 178 | 0.0 | 2.0 | 0.00 | 0.00 | 0.00 | 59 | 1014.1 |
| 20260504042026 | 47 | 238 | 0.0 | 1.0 | 0.00 | 0.00 | 0.00 | 59 | 1014.0 |
| 20260504041546 | 47 | 0 | 0.0 | 1.0 | 0.00 | 0.00 | 0.00 | 58 | 1013.9 |
| 20260504041026 | 48 | 226 | 0.0 | 1.0 | 0.00 | 0.00 | 0.00 | 58 | 1013.8 |
| 20260504040526 | 48 | 248 | 0.0 | 1.0 | 0.00 | 0.00 | 0.00 | 58 | 1013.8 |
| 20260504040045 | 48 | 248 | 0.0 | 3.0 | 0.00 | 0.00 | 0.00 | 57 | 1013.8 |
| 20260504035524 | 48 | 0 | 1.0 | 3.0 | 0.00 | 0.00 | 0.00 | 57 | 1013.8 |
| 20260504035024 | 48 | 236 | 0.0 | 2.0 | 0.00 | 0.00 | 0.00 | 57 | 1013.7 |
| 20260504034546 | 48 | 0 | 0.0 | 2.0 | 0.00 | 0.00 | 0.00 | 56 | 1013.7 |
| 20260504034026 | 48 | 241 | 0.0 | 2.0 | 0.00 | 0.00 | 0.00 | 56 | 1013.8 |
| 20260504033525 | 48 | 0 | 0.0 | 2.0 | 0.00 | 0.00 | 0.00 | 55 | 1013.7 |
| 20260504033039 | 48 | 249 | 1.0 | 2.0 | 0.00 | 0.00 | 0.00 | 55 | 1013.7 |
| 20260504032527 | 48 | 227 | 0.0 | 2.0 | 0.00 | 0.00 | 0.00 | 54 | 1013.7 |
| 20260504032027 | 48 | 0 | 0.0 | 2.0 | 0.00 | 0.00 | 0.00 | 54 | 1013.6 |
| 20260504031547 | 48 | 226 | 0.0 | 1.0 | 0.00 | 0.00 | 0.00 | 54 | 1013.6 |
| 20260504031025 | 48 | 220 | 0.0 | 3.0 | 0.00 | 0.00 | 0.00 | 54 | 1013.6 |
| 20260504030525 | 48 | 221 | 0.0 | 3.0 | 0.00 | 0.00 | 0.00 | 54 | 1013.5 |
| 20260504025525 | 48 | 0 | 0.0 | 1.0 | 0.00 | 0.00 | 0.00 | 53 | 1013.5 |
| 20260504025025 | 48 | 0 | 0.0 | 2.0 | 0.00 | 0.00 | 0.00 | 52 | 1013.6 |
| 20260504024542 | 48 | 0 | 0.0 | 2.0 | 0.00 | 0.00 | 0.00 | 53 | 1013.5 |
| 20260504024025 | 49 | 211 | 0.0 | 2.0 | 0.00 | 0.00 | 0.00 | 52 | 1013.6 |
| 20260504023525 | 49 | 0 | 0.0 | 3.0 | 0.00 | 0.00 | 0.00 | 52 | 1013.6 |
| 20260504023042 | 49 | 0 | 0.0 | 3.0 | 0.00 | 0.00 | 0.00 | 52 | 1013.6 |
| 20260504022525 | 49 | 0 | 0.0 | 3.0 | 0.00 | 0.00 | 0.00 | 52 | 1013.6 |
| 20260504022024 | 49 | 234 | 0.0 | 1.0 | 0.00 | 0.00 | 0.00 | 52 | 1013.6 |
| 20260504021544 | 49 | 0 | 0.0 | 1.0 | 0.00 | 0.00 | 0.00 | 52 | 1013.6 |
| 20260504021026 | 48 | 0 | 0.0 | 1.0 | 0.00 | 0.00 | 0.00 | 53 | 1013.6 |
| 20260504020527 | 49 | 0 | 0.0 | 1.0 | 0.00 | 0.00 | 0.00 | 52 | 1013.6 |
| 20260504020045 | 49 | 0 | 0.0 | 1.0 | 0.00 | 0.00 | 0.00 | 51 | 1013.6 |
| 20260504015527 | 49 | 0 | 0.0 | 1.0 | 0.00 | 0.00 | 0.00 | 51 | 1013.5 |
| 20260504015027 | 49 | 0 | 0.0 | 1.0 | 0.00 | 0.00 | 0.00 | 52 | 1013.5 |
| 20260504014545 | 49 | 0 | 0.0 | 1.0 | 0.00 | 0.00 | 0.00 | 51 | 1013.5 |
| 20260504014024 | 49 | 0 | 0.0 | 2.0 | 0.00 | 0.00 | 0.00 | 49 | 1013.4 |
| 20260504013526 | 49 | 0 | 0.0 | 2.0 | 0.00 | 0.00 | 0.00 | 49 | 1013.3 |
| 20260504013050 | 49 | 202 | 0.0 | 0.0 | 0.00 | 0.00 | 0.00 | 51 | 1013.3 |
| 20260504012527 | 49 | 0 | 0.0 | 0.0 | 0.00 | 0.00 | 0.00 | 51 | 1013.2 |
| 20260504012024 | 49 | 0 | 0.0 | 0.0 | 0.00 | 0.00 | 0.00 | 52 | 1013.2 |
| 20260504011540 | 50 | 0 | 0.0 | 0.0 | 0.00 | 0.00 | 0.00 | 51 | 1013.1 |
| 20260504011030 | 50 | 0 | 0.0 | 0.0 | 0.00 | 0.00 | 0.00 | 50 | 1013.0 |
| 20260504010524 | 50 | 0 | 0.0 | 0.0 | 0.00 | 0.00 | 0.00 | 48 | 1013.0 |
| 20260504010050 | 51 | 0 | 0.0 | 0.0 | 0.00 | 0.00 | 0.00 | 48 | 1012.9 |
| 20260504005525 | 51 | 0 | 0.0 | 0.0 | 0.00 | 0.00 | 0.00 | 47 | 1012.7 |
| 20260504005027 | 51 | 0 | 0.0 | 0.0 | 0.00 | 0.00 | 0.00 | 46 | 1012.7 |
| 20260504004543 | 52 | 0 | 0.0 | 0.0 | 0.00 | 0.00 | 0.00 | 45 | 1012.7 |
| 20260504004025 | 52 | 0 | 0.0 | 1.0 | 0.00 | 0.00 | 0.00 | 43 | 1012.6 |
| 20260504003526 | 53 | 0 | 0.0 | 1.0 | 0.00 | 0.00 | 0.00 | 42 | 1012.4 |
| 20260504003045 | 54 | 248 | 0.0 | 1.0 | 0.00 | 0.00 | 0.00 | 41 | 1012.4 |
| 20260504002528 | 54 | 0 | 0.0 | 1.0 | 0.00 | 0.00 | 0.00 | 39 | 1012.2 |
| 20260504002032 | 55 | 248 | 0.0 | 1.0 | 0.00 | 0.00 | 0.00 | 38 | 1012.2 |
| 20260504001545 | 55 | 273 | 0.0 | 1.0 | 0.00 | 0.00 | 0.00 | 36 | 1012.2 |
| 20260504001029 | 56 | 275 | 0.0 | 2.0 | 0.00 | 0.00 | 0.00 | 36 | 1012.1 |
| 20260504000529 | 56 | 267 | 0.0 | 2.0 | 0.00 | 0.00 | 0.00 | 35 | 1012.1 |
| 20260504000046 | 56 | 288 | 0.0 | 4.0 | 0.00 | 0.00 | 0.00 | 35 | 1012.1 |
| 20260503235529 | 57 | 281 | 0.0 | 4.0 | 0.00 | 0.00 | 0.00 | 34 | 1012.1 |
| 20260503235032 | 57 | 302 | 1.0 | 3.0 | 0.00 | 0.00 | 0.00 | 34 | 1012.0 |
| 20260503234541 | 57 | 280 | 1.0 | 3.0 | 0.00 | 0.00 | 0.00 | 34 | 1012.1 |
| 20260503234029 | 58 | 275 | 1.0 | 5.0 | 0.00 | 0.00 | 0.00 | 33 | 1012.0 |
| 20260503233528 | 58 | 293 | 1.0 | 10.0 | 0.00 | 0.00 | 0.00 | 32 | 1012.0 |
| 20260503233050 | 58 | 280 | 3.0 | 10.0 | 0.00 | 0.00 | 0.00 | 32 | 1011.9 |
| 20260503232528 | 58 | 294 | 2.0 | 8.0 | 0.00 | 0.00 | 0.00 | 32 | 1011.9 |
| 20260503232028 | 58 | 276 | 2.0 | 6.0 | 0.00 | 0.00 | 0.00 | 31 | 1011.8 |
| 20260503231547 | 59 | 297 | 1.0 | 6.0 | 0.00 | 0.00 | 0.00 | 32 | 1011.9 |
| 20260503231031 | 59 | 335 | 1.0 | 10.0 | 0.00 | 0.00 | 0.00 | 31 | 1011.7 |
| 20260503230529 | 59 | 327 | 1.0 | 10.0 | 0.00 | 0.00 | 0.00 | 31 | 1011.8 |
| 20260503230058 | 59 | 328 | 2.0 | 9.0 | 0.00 | 0.00 | 0.00 | 30 | 1011.7 |
| 20260503225528 | 59 | 301 | 3.0 | 10.0 | 0.00 | 0.00 | 0.00 | 30 | 1011.6 |